Weather History for Midland Airpark, TX

Change the Weather History Date:

Tuesday, March 26, 2013

  Actual Average (KMAF) Record (KMAF)
Temperature  
Mean Temperature 50 °F 58 °F  
Max Temperature 65 °F 73 °F 90 °F (1956)
Min Temperature 35 °F 43 °F 20 °F (1965)
Degree Days  
Heating Degree Days 15 8  
Month to date heating degree days 272  
Since 1 July heating degree days 2509  
Cooling Degree Days 0 1  
Month to date cooling degree days 9  
Year to date cooling degree days 11  
Moisture  
Dew Point 14 °F    
Average Humidity 25    
Maximum Humidity 39    
Minimum Humidity 13    
Precipitation  
Precipitation 0.00 in 0.02 in 0.40 in (1977)
Month to date precipitation 0.50  
Year to date precipitation 1.77  
Snow  
Snow 0.00 in - - ()
Month to date snowfall  
Since 1 July snowfall  
Snow Depth -    
Sea Level Pressure  
Sea Level Pressure 30.27 in    
Wind  
Wind Speed 11 mph (SSE)    
Max Wind Speed 25 mph    
Max Gust Speed 29 mph    
Visibility 10 miles    
Events      
T = Trace of Precipitation, MM = Missing Value Source: NWS Daily Summary

Daily Weather History Graph

Daily Weather History Graph

Search for Another Location

Airport:

Trip Planner

Search our weather history database for the weather conditions in past years. The results will help you decide how hot, cold, wet, or windy it might be!

Date:

Astronomy

Mar. 26, 2013 Rise Set
Actual Time 7:44 AM CDT 8:04 PM CDT
Civil Twilight 7:19 AM CDT 8:28 PM CDT
Nautical Twilight 6:50 AM CDT 8:57 PM CDT
Astronomical Twilight 6:22 AM CDT 9:26 PM CDT
Moon 7:42 PM CDT (3/26) 7:00 AM CDT (3/26)
Length of Visible Light 13h 09m
Length of Day
12h 20m
Waxing Gibbous, 99% of the Moon is Illuminated
Mar 26
Waxing Gibbous
Mar 27
Full
Apr 2
Last Quarter
Apr 10
New
Apr 18
First Quarter

Hourly Weather History & Observations

Time (CDT) Temp. Windchill Dew Point Humidity Pressure Visibility Wind Dir Wind Speed Gust Speed Precip Events Conditions
12:15 AM 43.2 °F 36.6 °F 12.4 °F 29% 30.33 in 10.0 mi East 12.7 mph - N/A   Clear
12:35 AM 42.6 °F 36.8 °F 12.6 °F 30% 30.34 in 10.0 mi East 10.4 mph - N/A   Clear
12:55 AM 42.1 °F 37.1 °F 12.7 °F 30% 30.34 in 10.0 mi ESE 8.1 mph - N/A   Clear
1:15 AM 41.5 °F 36.4 °F 12.9 °F 31% 30.33 in 10.0 mi ESE 8.1 mph - N/A   Clear
1:35 AM 41.2 °F 36.6 °F 12.9 °F 32% 30.33 in 10.0 mi ESE 6.9 mph - N/A   Clear
1:55 AM 40.1 °F 36.1 °F 12.7 °F 33% 30.34 in 10.0 mi East 5.8 mph - N/A   Clear
2:15 AM 39.2 °F 35.0 °F 12.9 °F 34% 30.34 in 10.0 mi ESE 5.8 mph - N/A   Clear
2:35 AM 38.3 °F 34.8 °F 12.6 °F 35% 30.35 in 10.0 mi ESE 4.6 mph - N/A   Clear
2:55 AM 37.9 °F 33.5 °F 12.2 °F 35% 30.35 in 10.0 mi ESE 5.8 mph - N/A   Clear
3:15 AM 37.4 °F 32.8 °F 12.2 °F 36% 30.35 in 10.0 mi SE 5.8 mph - N/A   Clear
3:35 AM 37.4 °F 33.8 °F 12.0 °F 35% 30.35 in 10.0 mi SE 4.6 mph - N/A   Clear
3:55 AM 37.2 °F 32.6 °F 12.0 °F 36% 30.35 in 10.0 mi SE 5.8 mph - N/A   Clear
4:15 AM 36.9 °F 32.2 °F 11.8 °F 36% 30.35 in 10.0 mi SE 5.8 mph - N/A   Clear
4:35 AM 36.9 °F 31.4 °F 11.3 °F 35% 30.34 in 10.0 mi SE 6.9 mph - N/A   Clear
4:55 AM 36.5 °F 31.0 °F 11.3 °F 35% 30.34 in 10.0 mi SE 6.9 mph - N/A   Clear
5:15 AM 36.1 °F 29.3 °F 11.3 °F 36% 30.34 in 10.0 mi SE 9.2 mph - N/A   Clear
5:35 AM 36.0 °F 29.6 °F 11.8 °F 37% 30.33 in 10.0 mi SE 8.1 mph - N/A   Clear
5:55 AM 35.8 °F 30.1 °F 11.8 °F 37% 30.33 in 10.0 mi SE 6.9 mph - N/A   Clear
6:15 AM 35.2 °F 29.5 °F 11.8 °F 38% 30.33 in 10.0 mi SE 6.9 mph - N/A   Clear
6:35 AM 35.1 °F 28.6 °F 12.0 °F 39% 30.33 in 10.0 mi SE 8.1 mph - N/A   Clear
6:55 AM 35.6 °F 28.0 °F 11.7 °F 37% 30.34 in 10.0 mi SE 10.4 mph - N/A   Clear
7:15 AM 35.1 °F 27.9 °F 11.7 °F 38% 30.35 in 10.0 mi SE 9.2 mph - N/A   Clear
7:35 AM 35.6 °F 28.0 °F 11.3 °F 37% 30.35 in 10.0 mi SE 10.4 mph - N/A   Clear
7:55 AM 35.6 °F 28.0 °F 10.9 °F 36% 30.36 in 10.0 mi SE 10.4 mph - N/A   Clear
8:15 AM 36.3 °F 30.8 °F 11.1 °F 35% 30.37 in 10.0 mi SSE 6.9 mph - N/A   Clear
8:35 AM 37.6 °F 30.0 °F 11.1 °F 34% 30.37 in 10.0 mi SSE 11.5 mph 18.4 mph N/A   Clear
8:55 AM 38.5 °F 30.7 °F 12.0 °F 34% 30.37 in 10.0 mi SSE 12.7 mph - N/A   Clear
9:15 AM 40.1 °F 31.6 °F 13.1 °F 33% 30.38 in 10.0 mi SSE 16.1 mph - N/A   Clear
9:35 AM 41.9 °F 35.0 °F 14.0 °F 32% 30.37 in 10.0 mi SSE 12.7 mph 19.6 mph N/A   Clear
9:55 AM 44.1 °F 37.7 °F 14.5 °F 30% 30.38 in 10.0 mi SE 12.7 mph 17.3 mph N/A   Clear
10:15 AM 46.2 °F 40.1 °F 14.7 °F 28% 30.37 in 10.0 mi SSE 13.8 mph 20.7 mph N/A   Clear
10:35 AM 47.3 °F - 14.5 °F 27% 30.38 in 10.0 mi South 16.1 mph 23.0 mph N/A   Clear
10:55 AM 48.4 °F - 14.5 °F 26% 30.37 in 10.0 mi SSE 17.3 mph 24.2 mph N/A   Clear
11:15 AM 50.5 °F - 14.7 °F 24% 30.37 in 10.0 mi South 19.6 mph 24.2 mph N/A   Clear
11:35 AM 52.2 °F - 14.9 °F 23% 30.36 in 10.0 mi South 17.3 mph 21.9 mph N/A   Clear
11:55 AM 53.1 °F - 15.1 °F 22% 30.35 in 10.0 mi SSE 17.3 mph 21.9 mph N/A   Clear
12:15 PM 54.5 °F - 14.4 °F 20% 30.33 in 10.0 mi South 19.6 mph 24.2 mph N/A   Clear
12:35 PM 55.9 °F - 14.7 °F 20% 30.33 in 10.0 mi South 18.4 mph 24.2 mph N/A   Clear
12:55 PM 56.5 °F - 13.6 °F 18% 30.32 in 10.0 mi South 20.7 mph - N/A   Clear
1:15 PM 57.4 °F - 14.4 °F 18% 30.31 in 10.0 mi South 17.3 mph 28.8 mph N/A   Clear
1:55 PM 59.9 °F - 13.5 °F 16% 30.28 in 10.0 mi SSE 19.6 mph 26.5 mph N/A   Clear
2:15 PM 61.0 °F - 13.6 °F 16% 30.27 in 10.0 mi South 16.1 mph 23.0 mph N/A   Clear
2:35 PM 62.1 °F - 13.5 °F 15% 30.26 in 10.0 mi SSE 20.7 mph 27.6 mph N/A   Clear
2:55 PM 62.6 °F - 12.9 °F 14% 30.24 in 10.0 mi South 20.7 mph 27.6 mph N/A   Clear
3:15 PM 62.8 °F - 12.9 °F 14% 30.23 in 10.0 mi South 16.1 mph 26.5 mph N/A   Clear
3:35 PM 63.5 °F - 12.6 °F 14% 30.22 in 10.0 mi South 19.6 mph 26.5 mph N/A   Clear
3:55 PM 63.5 °F - 12.6 °F 14% 30.21 in 10.0 mi SSE 16.1 mph 28.8 mph N/A   Clear
4:15 PM 64.6 °F - 13.3 °F 14% 30.19 in 10.0 mi South 19.6 mph 27.6 mph N/A   Clear
4:35 PM 64.8 °F - 12.9 °F 13% 30.18 in 10.0 mi South 17.3 mph 25.3 mph N/A   Clear
4:55 PM 64.8 °F - 12.0 °F 13% 30.16 in 10.0 mi SSE 25.3 mph 28.8 mph N/A   Clear
5:15 PM 65.3 °F - 12.4 °F 13% 30.16 in 10.0 mi SSE 17.3 mph 25.3 mph N/A   Clear
5:35 PM 65.1 °F - 11.8 °F 13% 30.16 in 10.0 mi South 16.1 mph 26.5 mph N/A   Clear
5:55 PM 65.1 °F - 12.9 °F 13% 30.15 in 10.0 mi South 15.0 mph 23.0 mph N/A   Clear
6:15 PM 64.2 °F - 12.2 °F 13% 30.15 in 10.0 mi South 16.1 mph 21.9 mph N/A   Clear
6:35 PM 64.2 °F - 12.2 °F 13% 30.14 in 10.0 mi South 17.3 mph 21.9 mph N/A   Clear
6:55 PM 63.7 °F - 12.7 °F 14% 30.14 in 10.0 mi South 15.0 mph - N/A   Clear
7:15 PM 63.0 °F - 12.9 °F 14% 30.14 in 10.0 mi South 16.1 mph 24.2 mph N/A   Clear
7:35 PM 62.2 °F - 13.5 °F 15% 30.14 in 10.0 mi SSE 12.7 mph - N/A   Clear
7:55 PM 61.2 °F - 13.6 °F 16% 30.14 in 10.0 mi South 15.0 mph - N/A   Clear
8:15 PM 60.3 °F - 14.9 °F 17% 30.14 in 10.0 mi South 15.0 mph - N/A   Clear
8:35 PM 59.2 °F - 15.8 °F 18% 30.14 in 10.0 mi SSE 11.5 mph - N/A   Clear
8:55 PM 58.3 °F - 16.7 °F 20% 30.14 in 10.0 mi SSE 11.5 mph - N/A   Clear
9:15 PM 57.2 °F - 17.1 °F 21% 30.14 in 10.0 mi South 12.7 mph - N/A   Clear
9:35 PM 56.5 °F - 17.6 °F 22% 30.15 in 10.0 mi SSE 12.7 mph - N/A   Clear
9:55 PM 55.8 °F - 18.0 °F 23% 30.15 in 10.0 mi SSE 11.5 mph - N/A   Clear
10:15 PM 55.4 °F - 18.5 °F 24% 30.15 in 10.0 mi SSE 12.7 mph - N/A   Clear
10:35 PM 54.7 °F - 18.9 °F 25% 30.16 in 10.0 mi SSE 12.7 mph 17.3 mph N/A   Clear
10:55 PM 53.6 °F - 19.0 °F 26% 30.16 in 10.0 mi South 10.4 mph - N/A   Clear
11:15 PM 52.9 °F - 19.4 °F 27% 30.15 in 10.0 mi SSE 12.7 mph - N/A   Clear
11:35 PM 52.7 °F - 19.4 °F 27% 30.15 in 10.0 mi SSE 12.7 mph - N/A   Clear
11:55 PM 52.7 °F - 19.9 °F 28% 30.14 in 10.0 mi SSE 15.0 mph 20.7 mph N/A   Clear